owner,sensor,date,latitude,longitude,vertical_datum,direction_of_sea_water_velocity,sea_water_speed,upward_sea_water_velocity,qcFlag 
TABS,ioos:station:wmo:42045:1,2009-04-01T00:00:00Z,26.2168,-96.4998,2.0,183.5779821,38.29465367,-99999.0,'11111222,11111222,99999999' 
TABS,ioos:station:wmo:42045:1,2009-04-01T00:30:00Z,26.2168,-96.4998,2.0,193.6859548,44.46246057,-99999.0,'11111222,11111222,99999999' 
TABS,ioos:station:wmo:42045:1,2009-04-01T01:00:00Z,26.2168,-96.4998,2.0,192.3601031,42.79188708,-99999.0,'11111222,11111222,99999999' 
TABS,ioos:station:wmo:42045:1,2009-04-01T01:30:00Z,26.2168,-96.4998,2.0,195.9631174,48.17784657,-99999.0,'11111222,11111222,99999999' 
TABS,ioos:station:wmo:42045:1,2009-04-01T02:00:00Z,26.2168,-96.4998,2.0,206.4019302,47.20358567,-99999.0,'11111222,11111222,99999999' 
TABS,ioos:station:wmo:42045:1,2009-04-01T02:30:00Z,26.2168,-96.4998,2.0,211.4349728,47.72452724,-99999.0,'11111222,11111222,99999999' 
TABS,ioos:station:wmo:42045:1,2009-04-01T03:00:00Z,26.2168,-96.4998,2.0,213.8929651,48.48942256,-99999.0,'11111222,11111222,99999999' 
TABS,ioos:station:wmo:42045:1,2009-04-01T03:30:00Z,26.2168,-96.4998,2.0,212.8006051,47.18293336,-99999.0,'11111222,11111222,99999999' 
TABS,ioos:station:wmo:42045:1,2009-04-01T04:00:00Z,26.2168,-96.4998,2.0,223.1758393,42.87946478,-99999.0,'11111222,11111222,99999999' 
TABS,ioos:station:wmo:42045:1,2009-04-01T04:30:00Z,26.2168,-96.4998,2.0,227.9388018,45.09494983,-99999.0,'11111222,11111222,99999999' 
TABS,ioos:station:wmo:42045:1,2009-04-01T05:00:00Z,26.2168,-96.4998,2.0,236.9671462,38.90923412,-99999.0,'11111222,11111222,99999999' 
TABS,ioos:station:wmo:42045:1,2009-04-01T05:30:00Z,26.2168,-96.4998,2.0,242.8165578,41.87504507,-99999.0,'11111222,11111222,99999999' 
TABS,ioos:station:wmo:42045:1,2009-04-01T06:00:00Z,26.2168,-96.4998,2.0,245.4564818,39.67465816,-99999.0,'11111222,11111222,99999999' 
TABS,ioos:station:wmo:42045:1,2009-04-01T06:30:00Z,26.2168,-96.4998,2.0,260.5708805,36.44232978,-99999.0,'11111222,11111222,99999999' 
TABS,ioos:station:wmo:42045:1,2009-04-01T07:00:00Z,26.2168,-96.4998,2.0,281.2247402,35.44803097,-99999.0,'11111222,11111222,99999999' 
TABS,ioos:station:wmo:42045:1,2009-04-01T07:30:00Z,26.2168,-96.4998,2.0,309.3652921,46.95251218,-99999.0,'11111222,11111222,99999999' 
TABS,ioos:station:wmo:42045:1,2009-04-01T08:00:00Z,26.2168,-96.4998,2.0,315.8160803,45.19577525,-99999.0,'11111222,11111222,99999999' 
TABS,ioos:station:wmo:42045:1,2009-04-01T08:30:00Z,26.2168,-96.4998,2.0,327.106305,42.71881202,-99999.0,'11111222,11111222,99999999' 
TABS,ioos:station:wmo:42045:1,2009-04-01T09:00:00Z,26.2168,-96.4998,2.0,331.993897,42.31532228,-99999.0,'11111222,11111222,99999999' 
TABS,ioos:station:wmo:42045:1,2009-04-01T09:30:00Z,26.2168,-96.4998,2.0,336.2372828,41.98989521,-99999.0,'11111222,11111222,99999999' 
TABS,ioos:station:wmo:42045:1,2009-04-01T10:00:00Z,26.2168,-96.4998,2.0,339.1483433,40.1175585,-99999.0,'11111222,11111222,99999999' 
TABS,ioos:station:wmo:42045:1,2009-04-01T10:30:00Z,26.2168,-96.4998,2.0,350.0595114,38.98529082,-99999.0,'11111222,11111222,99999999' 
TABS,ioos:station:wmo:42045:1,2009-04-01T11:00:00Z,26.2168,-96.4998,2.0,354.0624111,45.91635221,-99999.0,'11111222,11111222,99999999' 
TABS,ioos:station:wmo:42045:1,2009-04-01T11:30:00Z,26.2168,-96.4998,2.0,0.153543667,44.84016057,-99999.0,'11111222,11111222,99999999' 
TABS,ioos:station:wmo:42045:1,2009-04-01T12:00:00Z,26.2168,-96.4998,2.0,9.762916961,44.52478972,-99999.0,'11111222,11111222,99999999' 
TABS,ioos:station:wmo:42045:1,2009-04-01T12:30:00Z,26.2168,-96.4998,2.0,10.67710432,49.17127718,-99999.0,'11111222,11111222,99999999' 
TABS,ioos:station:wmo:42045:1,2009-04-01T13:00:00Z,26.2168,-96.4998,2.0,11.82195006,46.76183593,-99999.0,'11111222,11111222,99999999' 
TABS,ioos:station:wmo:42045:1,2009-04-01T13:30:00Z,26.2168,-96.4998,2.0,18.78789186,43.6560706,-99999.0,'11111222,11111222,99999999' 
TABS,ioos:station:wmo:42045:1,2009-04-01T14:00:00Z,26.2168,-96.4998,2.0,18.14026036,46.70113489,-99999.0,'11111222,11111222,99999999' 
TABS,ioos:station:wmo:42045:1,2009-04-01T14:30:00Z,26.2168,-96.4998,2.0,32.49174844,47.34014998,-99999.0,'11111222,11111222,99999999' 
TABS,ioos:station:wmo:42045:1,2009-04-01T15:00:00Z,26.2168,-96.4998,2.0,32.39074228,46.35157495,-99999.0,'11111222,11111222,99999999' 
TABS,ioos:station:wmo:42045:1,2009-04-01T15:30:00Z,26.2168,-96.4998,2.0,39.08556518,46.25057405,-99999.0,'11111222,11111222,99999999' 
TABS,ioos:station:wmo:42045:1,2009-04-01T16:00:00Z,26.2168,-96.4998,2.0,39.93783058,46.0780349,-99999.0,'11111222,11111222,99999999' 
TABS,ioos:station:wmo:42045:1,2009-04-01T16:30:00Z,26.2168,-96.4998,2.0,47.84877134,45.67189617,-99999.0,'11111222,11111222,99999999' 
TABS,ioos:station:wmo:42045:1,2009-04-01T17:00:00Z,26.2168,-96.4998,2.0,51.85769489,47.73177139,-99999.0,'11111222,11111222,99999999' 
TABS,ioos:station:wmo:42045:1,2009-04-01T17:30:00Z,26.2168,-96.4998,2.0,58.43791095,39.7383895,-99999.0,'11111222,11111222,99999999' 
TABS,ioos:station:wmo:42045:1,2009-04-01T18:00:00Z,26.2168,-96.4998,2.0,60.70331812,42.97686936,-99999.0,'11111222,11111222,99999999' 
TABS,ioos:station:wmo:42045:1,2009-04-01T18:30:00Z,26.2168,-96.4998,2.0,65.56918494,39.86991472,-99999.0,'11111222,11111222,99999999' 
TABS,ioos:station:wmo:42045:1,2009-04-01T19:00:00Z,26.2168,-96.4998,2.0,65.65649042,40.1497061,-99999.0,'11111222,11111222,99999999' 
TABS,ioos:station:wmo:42045:1,2009-04-01T19:30:00Z,26.2168,-96.4998,2.0,72.04911357,45.29491914,-99999.0,'11111222,11111222,99999999' 
TABS,ioos:station:wmo:42045:1,2009-04-01T20:00:00Z,26.2168,-96.4998,2.0,74.21053636,38.36769474,-99999.0,'11111222,11111222,99999999' 
TABS,ioos:station:wmo:42045:1,2009-04-01T20:30:00Z,26.2168,-96.4998,2.0,75.54371516,39.69687267,-99999.0,'11111222,11111222,99999999' 
TABS,ioos:station:wmo:42045:1,2009-04-01T21:00:00Z,26.2168,-96.4998,2.0,77.27926672,40.14537582,-99999.0,'11111222,11111222,99999999' 
TABS,ioos:station:wmo:42045:1,2009-04-01T21:30:00Z,26.2168,-96.4998,2.0,78.57092422,35.83049539,-99999.0,'11111222,11111222,99999999' 
TABS,ioos:station:wmo:42045:1,2009-04-01T22:00:00Z,26.2168,-96.4998,2.0,84.50342923,30.90209054,-99999.0,'11111222,11111222,99999999' 
TABS,ioos:station:wmo:42045:1,2009-04-01T22:30:00Z,26.2168,-96.4998,2.0,82.94771048,32.25401835,-99999.0,'11111222,11111222,99999999' 
TABS,ioos:station:wmo:42045:1,2009-04-01T23:00:00Z,26.2168,-96.4998,2.0,87.68095438,24.9604427,-99999.0,'11111222,11111222,99999999' 
TABS,ioos:station:wmo:42045:1,2009-04-01T23:30:00Z,26.2168,-96.4998,2.0,85.50185724,25.62894067,-99999.0,'11111222,11111222,99999999' 
TABS,ioos:station:wmo:42045:1,2009-04-02T00:00:00Z,26.2168,-96.4998,2.0,89.71494939,26.13032338,-99999.0,'11111222,11111222,99999999' 
TABS,ioos:station:wmo:42045:1,2009-04-02T00:30:00Z,26.2168,-96.4998,2.0,83.5922132,25.26785507,-99999.0,'11111222,11111222,99999999' 
TABS,ioos:station:wmo:42045:1,2009-04-02T01:00:00Z,26.2168,-96.4998,2.0,96.29197012,17.06278113,-99999.0,'11111222,11111222,99999999' 
TABS,ioos:station:wmo:42045:1,2009-04-02T01:30:00Z,26.2168,-96.4998,2.0,93.46991296,20.48755964,-99999.0,'11111222,11111222,99999999' 
TABS,ioos:station:wmo:42045:1,2009-04-02T02:00:00Z,26.2168,-96.4998,2.0,95.82160875,24.64711748,-99999.0,'11111222,11111222,99999999' 
TABS,ioos:station:wmo:42045:1,2009-04-02T02:30:00Z,26.2168,-96.4998,2.0,90.45611002,16.33051744,-99999.0,'11111222,11111222,99999999' 
TABS,ioos:station:wmo:42045:1,2009-04-02T03:00:00Z,26.2168,-96.4998,2.0,84.09096163,13.50174063,-99999.0,'11111222,11111222,99999999' 
TABS,ioos:station:wmo:42045:1,2009-04-02T03:30:00Z,26.2168,-96.4998,2.0,86.31543464,13.5379836,-99999.0,'11111222,11111222,99999999' 
TABS,ioos:station:wmo:42045:1,2009-04-02T04:00:00Z,26.2168,-96.4998,2.0,109.2950348,10.74346778,-99999.0,'11111222,11111222,99999999' 
TABS,ioos:station:wmo:42045:1,2009-04-02T04:30:00Z,26.2168,-96.4998,2.0,91.9618462,9.055307836,-99999.0,'11133222,11111222,99999999' 
TABS,ioos:station:wmo:42045:1,2009-04-02T05:00:00Z,26.2168,-96.4998,2.0,74.23450156,7.876293545,-99999.0,'11133222,11111222,99999999' 
TABS,ioos:station:wmo:42045:1,2009-04-02T05:30:00Z,26.2168,-96.4998,2.0,88.75328395,9.192176021,-99999.0,'11133222,11111222,99999999' 
TABS,ioos:station:wmo:42045:1,2009-04-02T06:00:00Z,26.2168,-96.4998,2.0,94.00815869,10.0144945,-99999.0,'11111222,11111222,99999999' 
TABS,ioos:station:wmo:42045:1,2009-04-02T06:30:00Z,26.2168,-96.4998,2.0,76.12004982,10.67160719,-99999.0,'11111222,11111222,99999999' 
TABS,ioos:station:wmo:42045:1,2009-04-02T07:00:00Z,26.2168,-96.4998,2.0,38.38121,9.631349853,-99999.0,'11133222,11111222,99999999' 
TABS,ioos:station:wmo:42045:1,2009-04-02T07:30:00Z,26.2168,-96.4998,2.0,64.39420915,5.877210223,-99999.0,'11133222,11111222,99999999' 
TABS,ioos:station:wmo:42045:1,2009-04-02T08:00:00Z,26.2168,-96.4998,2.0,55.45235608,12.04389057,-99999.0,'11111222,11111222,99999999' 
TABS,ioos:station:wmo:42045:1,2009-04-02T08:30:00Z,26.2168,-96.4998,2.0,48.20047269,12.03251013,-99999.0,'11111222,11111222,99999999' 
TABS,ioos:station:wmo:42045:1,2009-04-02T09:00:00Z,26.2168,-96.4998,2.0,34.18439896,9.646595254,-99999.0,'11133222,11111222,99999999' 
TABS,ioos:station:wmo:42045:1,2009-04-02T09:30:00Z,26.2168,-96.4998,2.0,29.82813725,14.53564584,-99999.0,'11111222,11111222,99999999' 
TABS,ioos:station:wmo:42045:1,2009-04-02T10:00:00Z,26.2168,-96.4998,2.0,28.35256871,15.77195295,-99999.0,'11111222,11111222,99999999' 
TABS,ioos:station:wmo:42045:1,2009-04-02T10:30:00Z,26.2168,-96.4998,2.0,35.01786212,21.90544453,-99999.0,'11111222,11111222,99999999' 
TABS,ioos:station:wmo:42045:1,2009-04-02T11:00:00Z,26.2168,-96.4998,2.0,39.18147559,23.50512497,-99999.0,'11111222,11111222,99999999' 
TABS,ioos:station:wmo:42045:1,2009-04-02T11:30:00Z,26.2168,-96.4998,2.0,45.17452066,27.87427847,-99999.0,'11111222,11111222,99999999' 
TABS,ioos:station:wmo:42045:1,2009-04-02T12:00:00Z,26.2168,-96.4998,2.0,35.3783742,26.73706042,-99999.0,'11111222,11111222,99999999' 
TABS,ioos:station:wmo:42045:1,2009-04-02T12:30:00Z,26.2168,-96.4998,2.0,39.45028498,30.34276355,-99999.0,'11111222,11111222,99999999' 
TABS,ioos:station:wmo:42045:1,2009-04-02T13:00:00Z,26.2168,-96.4998,2.0,47.36742837,37.14773883,-99999.0,'11111222,11111222,99999999' 
TABS,ioos:station:wmo:42045:1,2009-04-02T13:30:00Z,26.2168,-96.4998,2.0,49.85336826,42.7919642,-99999.0,'11111222,11111222,99999999' 
TABS,ioos:station:wmo:42045:1,2009-04-02T14:00:00Z,26.2168,-96.4998,2.0,50.15422847,41.87447194,-99999.0,'11111222,11111222,99999999' 
TABS,ioos:station:wmo:42045:1,2009-04-02T14:30:00Z,26.2168,-96.4998,2.0,64.87673921,45.85838309,-99999.0,'11111222,11111222,99999999' 
TABS,ioos:station:wmo:42045:1,2009-04-02T15:00:00Z,26.2168,-96.4998,2.0,60.71201305,47.91490061,-99999.0,'11111222,11111222,99999999' 
TABS,ioos:station:wmo:42045:1,2009-04-02T15:30:00Z,26.2168,-96.4998,2.0,65.31594727,46.59793128,-99999.0,'11111222,11111222,99999999' 
TABS,ioos:station:wmo:42045:1,2009-04-02T16:00:00Z,26.2168,-96.4998,2.0,67.69902209,47.27611659,-99999.0,'11111222,11111222,99999999' 
TABS,ioos:station:wmo:42045:1,2009-04-02T16:30:00Z,26.2168,-96.4998,2.0,77.40089641,51.25419788,-99999.0,'11111222,11111222,99999999' 
TABS,ioos:station:wmo:42045:1,2009-04-02T17:00:00Z,26.2168,-96.4998,2.0,92.91338412,49.38382832,-99999.0,'11111222,11111222,99999999' 
TABS,ioos:station:wmo:42045:1,2009-04-02T17:30:00Z,26.2168,-96.4998,2.0,97.91228042,49.10750655,-99999.0,'11111222,11111222,99999999' 
TABS,ioos:station:wmo:42045:1,2009-04-02T18:00:00Z,26.2168,-96.4998,2.0,108.4508123,45.56209828,-99999.0,'11111222,11111222,99999999' 
TABS,ioos:station:wmo:42045:1,2009-04-02T18:30:00Z,26.2168,-96.4998,2.0,114.6818955,44.2309507,-99999.0,'11111222,11111222,99999999' 
TABS,ioos:station:wmo:42045:1,2009-04-02T19:00:00Z,26.2168,-96.4998,2.0,118.6422866,41.57793886,-99999.0,'11111222,11111222,99999999' 
TABS,ioos:station:wmo:42045:1,2009-04-02T19:30:00Z,26.2168,-96.4998,2.0,128.2801439,42.90499738,-99999.0,'11111222,11111222,99999999' 
TABS,ioos:station:wmo:42045:1,2009-04-02T20:00:00Z,26.2168,-96.4998,2.0,135.030496,39.71819356,-99999.0,'11111222,11111222,99999999' 
TABS,ioos:station:wmo:42045:1,2009-04-02T20:30:00Z,26.2168,-96.4998,2.0,138.519864,42.15237597,-99999.0,'11111222,11111222,99999999' 
TABS,ioos:station:wmo:42045:1,2009-04-02T21:00:00Z,26.2168,-96.4998,2.0,145.6111546,41.62502372,-99999.0,'11111222,11111222,99999999' 
TABS,ioos:station:wmo:42045:1,2009-04-02T21:30:00Z,26.2168,-96.4998,2.0,146.4643896,39.06213,-99999.0,'11111222,11111222,99999999' 
TABS,ioos:station:wmo:42045:1,2009-04-02T22:00:00Z,26.2168,-96.4998,2.0,152.5954312,41.82343123,-99999.0,'11111222,11111222,99999999' 
TABS,ioos:station:wmo:42045:1,2009-04-02T22:30:00Z,26.2168,-96.4998,2.0,156.8900096,44.07699627,-99999.0,'11111222,11111222,99999999' 
TABS,ioos:station:wmo:42045:1,2009-04-02T23:00:00Z,26.2168,-96.4998,2.0,155.6149469,42.556345,-99999.0,'11111222,11111222,99999999' 
TABS,ioos:station:wmo:42045:1,2009-04-02T23:30:00Z,26.2168,-96.4998,2.0,162.5958209,43.7635202,-99999.0,'11111222,11111222,99999999' 
TABS,ioos:station:wmo:42045:1,2009-04-03T00:00:00Z,26.2168,-96.4998,2.0,165.2619974,45.75535051,-99999.0,'11111222,11111222,99999999' 
TABS,ioos:station:wmo:42045:1,2009-04-03T00:30:00Z,26.2168,-96.4998,2.0,174.4547148,48.22567366,-99999.0,'11111222,11111222,99999999' 
TABS,ioos:station:wmo:42045:1,2009-04-03T01:00:00Z,26.2168,-96.4998,2.0,177.0654292,44.9289094,-99999.0,'11111222,11111222,99999999' 
TABS,ioos:station:wmo:42045:1,2009-04-03T01:30:00Z,26.2168,-96.4998,2.0,185.7728629,46.52597662,-99999.0,'11111222,11111222,99999999' 
TABS,ioos:station:wmo:42045:1,2009-04-03T02:00:00Z,26.2168,-96.4998,2.0,184.2283926,51.67065899,-99999.0,'11111222,11111222,99999999' 
TABS,ioos:station:wmo:42045:1,2009-04-03T02:30:00Z,26.2168,-96.4998,2.0,190.1922425,51.99046932,-99999.0,'11111222,11111222,99999999' 
TABS,ioos:station:wmo:42045:1,2009-04-03T03:00:00Z,26.2168,-96.4998,2.0,197.4175114,51.48050602,-99999.0,'11111222,11111222,99999999' 
TABS,ioos:station:wmo:42045:1,2009-04-03T03:30:00Z,26.2168,-96.4998,2.0,204.540146,50.63382763,-99999.0,'11111222,11111222,99999999' 
TABS,ioos:station:wmo:42045:1,2009-04-03T04:00:00Z,26.2168,-96.4998,2.0,211.7490608,45.78070554,-99999.0,'11111222,11111222,99999999' 
TABS,ioos:station:wmo:42045:1,2009-04-03T04:30:00Z,26.2168,-96.4998,2.0,221.1214601,47.04548012,-99999.0,'11111222,11111222,99999999' 
TABS,ioos:station:wmo:42045:1,2009-04-03T05:00:00Z,26.2168,-96.4998,2.0,226.5707662,44.87572395,-99999.0,'11111222,11111222,99999999' 
TABS,ioos:station:wmo:42045:1,2009-04-03T05:30:00Z,26.2168,-96.4998,2.0,233.8138841,47.06935521,-99999.0,'11111222,11111222,99999999' 
TABS,ioos:station:wmo:42045:1,2009-04-03T06:00:00Z,26.2168,-96.4998,2.0,235.3130176,42.57690689,-99999.0,'11111222,11111222,99999999' 
TABS,ioos:station:wmo:42045:1,2009-04-03T06:30:00Z,26.2168,-96.4998,2.0,238.9204404,39.1497765,-99999.0,'11111222,11111222,99999999' 
TABS,ioos:station:wmo:42045:1,2009-04-03T07:00:00Z,26.2168,-96.4998,2.0,245.7802231,40.75742018,-99999.0,'11111222,11111222,99999999' 
TABS,ioos:station:wmo:42045:1,2009-04-03T07:30:00Z,26.2168,-96.4998,2.0,246.3227325,37.27788218,-99999.0,'11111222,11111222,99999999' 
TABS,ioos:station:wmo:42045:1,2009-04-03T08:00:00Z,26.2168,-96.4998,2.0,255.9670509,37.73611798,-99999.0,'11111222,11111222,99999999' 
TABS,ioos:station:wmo:42045:1,2009-04-03T08:30:00Z,26.2168,-96.4998,2.0,275.5241501,38.74993935,-99999.0,'11111222,11111222,99999999' 
TABS,ioos:station:wmo:42045:1,2009-04-03T09:00:00Z,26.2168,-96.4998,2.0,278.2134812,39.06061955,-99999.0,'11111222,11111222,99999999' 
TABS,ioos:station:wmo:42045:1,2009-04-03T09:30:00Z,26.2168,-96.4998,2.0,286.8044438,34.55555672,-99999.0,'11111222,11111222,99999999' 
TABS,ioos:station:wmo:42045:1,2009-04-03T10:00:00Z,26.2168,-96.4998,2.0,297.1525009,31.86116916,-99999.0,'11111222,11111222,99999999' 
TABS,ioos:station:wmo:42045:1,2009-04-03T10:30:00Z,26.2168,-96.4998,2.0,307.8256998,36.46106965,-99999.0,'11111222,11111222,99999999' 
TABS,ioos:station:wmo:42045:1,2009-04-03T11:00:00Z,26.2168,-96.4998,2.0,320.3506909,32.45618893,-99999.0,'11111222,11111222,99999999' 
TABS,ioos:station:wmo:42045:1,2009-04-03T11:30:00Z,26.2168,-96.4998,2.0,344.8443657,57.22022807,-99999.0,'11111222,11111222,99999999' 
TABS,ioos:station:wmo:42045:1,2009-04-03T12:00:00Z,26.2168,-96.4998,2.0,0.625563458,62.30371096,-99999.0,'11111222,11111222,99999999' 
TABS,ioos:station:wmo:42045:1,2009-04-03T12:30:00Z,26.2168,-96.4998,2.0,6.018848096,62.18276288,-99999.0,'11111222,11111222,99999999' 
TABS,ioos:station:wmo:42045:1,2009-04-03T13:00:00Z,26.2168,-96.4998,2.0,13.85991012,66.91832186,-99999.0,'11111222,11111222,99999999' 
TABS,ioos:station:wmo:42045:1,2009-04-03T13:30:00Z,26.2168,-96.4998,2.0,21.14365745,65.98190358,-99999.0,'11111222,11111222,99999999' 
TABS,ioos:station:wmo:42045:1,2009-04-03T14:00:00Z,26.2168,-96.4998,2.0,29.20698705,62.87349839,-99999.0,'11111222,11111222,99999999' 
TABS,ioos:station:wmo:42045:1,2009-04-03T14:30:00Z,26.2168,-96.4998,2.0,36.69560646,65.70030441,-99999.0,'11111222,11111222,99999999' 
TABS,ioos:station:wmo:42045:1,2009-04-03T15:00:00Z,26.2168,-96.4998,2.0,37.17362958,66.05092732,-99999.0,'11111222,11111222,99999999' 
TABS,ioos:station:wmo:42045:1,2009-04-03T15:30:00Z,26.2168,-96.4998,2.0,41.37953261,67.96841105,-99999.0,'11111222,11111222,99999999' 
TABS,ioos:station:wmo:42045:1,2009-04-03T16:00:00Z,26.2168,-96.4998,2.0,47.98008981,68.82384616,-99999.0,'11111222,11111222,99999999' 
TABS,ioos:station:wmo:42045:1,2009-04-03T16:30:00Z,26.2168,-96.4998,2.0,54.53161624,66.40186217,-99999.0,'11111222,11111222,99999999' 
TABS,ioos:station:wmo:42045:1,2009-04-03T17:00:00Z,26.2168,-96.4998,2.0,56.014927,68.39266774,-99999.0,'11111222,11111222,99999999' 
TABS,ioos:station:wmo:42045:1,2009-04-03T17:30:00Z,26.2168,-96.4998,2.0,61.04216686,58.69877341,-99999.0,'11111222,11111222,99999999' 
TABS,ioos:station:wmo:42045:1,2009-04-03T18:00:00Z,26.2168,-96.4998,2.0,63.5311936,61.27282105,-99999.0,'11111222,11111222,99999999' 
TABS,ioos:station:wmo:42045:1,2009-04-03T18:30:00Z,26.2168,-96.4998,2.0,67.45985929,59.19159569,-99999.0,'11111222,11111222,99999999' 
TABS,ioos:station:wmo:42045:1,2009-04-03T19:00:00Z,26.2168,-96.4998,2.0,69.43204383,56.07441484,-99999.0,'11111222,11111222,99999999' 
TABS,ioos:station:wmo:42045:1,2009-04-03T19:30:00Z,26.2168,-96.4998,2.0,67.46494928,57.71698623,-99999.0,'11111222,11111222,99999999' 
TABS,ioos:station:wmo:42045:1,2009-04-03T20:00:00Z,26.2168,-96.4998,2.0,70.8873794,52.13379422,-99999.0,'11111222,11111222,99999999' 
TABS,ioos:station:wmo:42045:1,2009-04-03T20:30:00Z,26.2168,-96.4998,2.0,71.06365857,52.75513624,-99999.0,'11111222,11111222,99999999' 
TABS,ioos:station:wmo:42045:1,2009-04-03T21:00:00Z,26.2168,-96.4998,2.0,72.9115389,47.37134999,-99999.0,'11111222,11111222,99999999' 
TABS,ioos:station:wmo:42045:1,2009-04-03T21:30:00Z,26.2168,-96.4998,2.0,71.02816074,45.89298857,-99999.0,'11111222,11111222,99999999' 
TABS,ioos:station:wmo:42045:1,2009-04-03T22:00:00Z,26.2168,-96.4998,2.0,71.28254755,41.0405385,-99999.0,'11111222,11111222,99999999' 
TABS,ioos:station:wmo:42045:1,2009-04-03T22:30:00Z,26.2168,-96.4998,2.0,67.55761874,36.01786501,-99999.0,'11111222,11111222,99999999' 
TABS,ioos:station:wmo:42045:1,2009-04-03T23:00:00Z,26.2168,-96.4998,2.0,70.04341046,31.43780209,-99999.0,'11111222,11111222,99999999' 
TABS,ioos:station:wmo:42045:1,2009-04-03T23:30:00Z,26.2168,-96.4998,2.0,73.74413899,31.93680009,-99999.0,'11111222,11111222,99999999' 
TABS,ioos:station:wmo:42045:1,2009-04-04T00:00:00Z,26.2168,-96.4998,2.0,56.12786795,27.91820195,-99999.0,'11111222,11111222,99999999' 
TABS,ioos:station:wmo:42045:1,2009-04-04T00:30:00Z,26.2168,-96.4998,2.0,37.6240276,28.42046094,-99999.0,'11111222,11111222,99999999' 
TABS,ioos:station:wmo:42045:1,2009-04-04T01:00:00Z,26.2168,-96.4998,2.0,27.54481945,21.71092121,-99999.0,'11111222,11111222,99999999' 
TABS,ioos:station:wmo:42045:1,2009-04-04T01:30:00Z,26.2168,-96.4998,2.0,26.16990304,22.03921051,-99999.0,'11111222,11111222,99999999' 
TABS,ioos:station:wmo:42045:1,2009-04-04T02:00:00Z,26.2168,-96.4998,2.0,29.56196964,25.23499554,-99999.0,'11111222,11111222,99999999' 
TABS,ioos:station:wmo:42045:1,2009-04-04T02:30:00Z,26.2168,-96.4998,2.0,19.44833976,23.42665362,-99999.0,'11111222,11111222,99999999' 
TABS,ioos:station:wmo:42045:1,2009-04-04T03:00:00Z,26.2168,-96.4998,2.0,23.67182363,31.80612834,-99999.0,'11111222,11111222,99999999' 
TABS,ioos:station:wmo:42045:1,2009-04-04T03:30:00Z,26.2168,-96.4998,2.0,17.32239187,26.86861552,-99999.0,'11111222,11111222,99999999' 
TABS,ioos:station:wmo:42045:1,2009-04-04T04:00:00Z,26.2168,-96.4998,2.0,17.91158811,25.26449089,-99999.0,'11111222,11111222,99999999' 
TABS,ioos:station:wmo:42045:1,2009-04-04T04:30:00Z,26.2168,-96.4998,2.0,28.62126724,21.43980644,-99999.0,'11111222,11111222,99999999' 
TABS,ioos:station:wmo:42045:1,2009-04-04T05:00:00Z,26.2168,-96.4998,2.0,22.51262076,27.08389374,-99999.0,'11111222,11111222,99999999' 
TABS,ioos:station:wmo:42045:1,2009-04-04T05:30:00Z,26.2168,-96.4998,2.0,34.08297138,22.25232123,-99999.0,'11111222,11111222,99999999' 
TABS,ioos:station:wmo:42045:1,2009-04-04T06:00:00Z,26.2168,-96.4998,2.0,16.38132078,23.11845151,-99999.0,'11111222,11111222,99999999' 
TABS,ioos:station:wmo:42045:1,2009-04-04T06:30:00Z,26.2168,-96.4998,2.0,357.0092536,20.69819557,-99999.0,'11111222,11111222,99999999' 
TABS,ioos:station:wmo:42045:1,2009-04-04T07:00:00Z,26.2168,-96.4998,2.0,10.86112784,25.52725994,-99999.0,'11111222,11111222,99999999' 
TABS,ioos:station:wmo:42045:1,2009-04-04T07:30:00Z,26.2168,-96.4998,2.0,10.78068524,28.22820044,-99999.0,'11111222,11111222,99999999' 
TABS,ioos:station:wmo:42045:1,2009-04-04T08:00:00Z,26.2168,-96.4998,2.0,8.753943275,34.43106882,-99999.0,'11111222,11111222,99999999' 
TABS,ioos:station:wmo:42045:1,2009-04-04T08:30:00Z,26.2168,-96.4998,2.0,12.26558462,38.69321,-99999.0,'11111222,11111222,99999999' 
TABS,ioos:station:wmo:42045:1,2009-04-04T09:00:00Z,26.2168,-96.4998,2.0,10.67333145,38.82162542,-99999.0,'11111222,11111222,99999999' 
TABS,ioos:station:wmo:42045:1,2009-04-04T09:30:00Z,26.2168,-96.4998,2.0,12.69911221,36.16463604,-99999.0,'11111222,11111222,99999999' 
TABS,ioos:station:wmo:42045:1,2009-04-04T10:00:00Z,26.2168,-96.4998,2.0,11.10256769,47.10152121,-99999.0,'11111222,11111222,99999999' 
TABS,ioos:station:wmo:42045:1,2009-04-04T10:30:00Z,26.2168,-96.4998,2.0,12.22316844,43.69041657,-99999.0,'11111222,11111222,99999999' 
TABS,ioos:station:wmo:42045:1,2009-04-04T11:00:00Z,26.2168,-96.4998,2.0,11.46193289,48.109418,-99999.0,'11111222,11111222,99999999' 
TABS,ioos:station:wmo:42045:1,2009-04-04T11:30:00Z,26.2168,-96.4998,2.0,12.04686493,49.1115404,-99999.0,'11111222,11111222,99999999' 
TABS,ioos:station:wmo:42045:1,2009-04-04T12:00:00Z,26.2168,-96.4998,2.0,6.174438087,52.99741597,-99999.0,'11111222,11111222,99999999' 
TABS,ioos:station:wmo:42045:1,2009-04-04T12:30:00Z,26.2168,-96.4998,2.0,19.57423621,50.7424487,-99999.0,'11111222,11111222,99999999' 
TABS,ioos:station:wmo:42045:1,2009-04-04T13:00:00Z,26.2168,-96.4998,2.0,18.92212529,46.13297302,-99999.0,'11111222,11111222,99999999' 
TABS,ioos:station:wmo:42045:1,2009-04-04T13:30:00Z,26.2168,-96.4998,2.0,20.34306506,50.33974573,-99999.0,'11111222,11111222,99999999' 
TABS,ioos:station:wmo:42045:1,2009-04-04T14:00:00Z,26.2168,-96.4998,2.0,21.9446516,52.79520622,-99999.0,'11111222,11111222,99999999' 
TABS,ioos:station:wmo:42045:1,2009-04-04T14:30:00Z,26.2168,-96.4998,2.0,24.09458478,51.14616799,-99999.0,'11111222,11111222,99999999' 
TABS,ioos:station:wmo:42045:1,2009-04-04T15:00:00Z,26.2168,-96.4998,2.0,25.57466572,52.5151959,-99999.0,'11111222,11111222,99999999' 
TABS,ioos:station:wmo:42045:1,2009-04-04T15:30:00Z,26.2168,-96.4998,2.0,27.76326927,52.40252856,-99999.0,'11111222,11111222,99999999' 
TABS,ioos:station:wmo:42045:1,2009-04-04T16:00:00Z,26.2168,-96.4998,2.0,27.43879881,54.55745595,-99999.0,'11111222,11111222,99999999' 